Home   Weather   Straubing   Past weeks

Flag for Germany Past Weather in Straubing, Bavaria, Germany — Yesterday and Last 2 Weeks

Now
14 °F

Scattered clouds.


Feels Like: 14 °F
Forecast: 5 / 22 °F
Wind: 1 mph from Northeast

Location: Straubing

Current Time: Jan 24, 2017 at 12:38:39 pm

Latest Report: Jan 24, 2017 at 12:00 pm


Visibility: 1 mi

Pressure: 30.44 "Hg

Humidity: 92%

Dew Point: 12 °F

Location of StraubingLocation

Past Weather in Straubing — Graph

°F

Straubing Temperature Yesterday

Maximum temperature yesterday: 13 °F (at 3:00 pm)
Minimum temperature yesterday: 0 °F (at 6:00 am)
Average temperature yesterday: 8 °F

High & Low Weather Summary for the Past Weeks

 TemperatureHumidityPressure
High40 °F (Jan 13, 6:00 am)100% (Jan 12, 11:00 pm)30.70 "Hg (Jan 12, 11:00 pm)
Low0 °F (Jan 23, 6:00 am)62% (Jan 19, 12:00 pm)29.41 "Hg (Jan 13, 3:00 am)
Average21 °F86%30.26 "Hg
* Reported Jan 9 11:00 am — Jan 24 11:00 am, Straubing, Weather by CustomWeather, © 2017

Note: Actual official high and low records may vary slightly from our data, if they occured in-between our weather recording intervals... More about our weather records

Advertising

Straubing Weather History for the Previous 24 Hours

Scroll right to see more
 ConditionsComfort  
Time TempWeatherWind HumidityBarometerVisibility
11:00 am
Tue, Jan 24
14 °FSnow flurries. Low clouds.1 mph93%30.44 "Hg0 mi
9:00 am13 °FLow clouds.No wind94%30.42 "Hg0 mi
8:00 am11 °FLow clouds.1 mph94%30.41 "Hg0 mi
6:00 am11 °FLow clouds.2 mph93%30.39 "Hg0 mi
5:00 am10 °FPassing clouds.2 mph92%30.37 "Hg1 mi
3:00 am11 °FPassing clouds.1 mph94%30.37 "Hg0 mi
2:00 am11 °FPassing clouds.1 mph93%30.37 "Hg0 mi
12:00 am11 °FLow clouds.1 mph96%30.37 "Hg0 mi
11:00 pm
Mon, Jan 23
11 °FLow clouds.1 mph95%30.36 "Hg0 mi
9:00 pm10 °FLow clouds.1 mph92%30.37 "Hg1 mi
8:00 pm6 °FPassing clouds.No wind92%30.37 "Hg1 mi
6:00 pm12 °FPassing clouds.1 mph94%30.35 "Hg1 mi
5:00 pm12 °FPassing clouds.1 mph96%30.35 "Hg0 mi
3:00 pm13 °FSunny.1 mph88%30.34 "Hg1 mi
2:00 pm12 °FPassing clouds.1 mph87%30.34 "Hg1 mi
12:00 pm11 °FLight snow. Passing clouds.No wind87%30.38 "Hg1 mi
Weather by CustomWeather, © 2017

See weather overviewHow to use our weather pages